Volver al catálogo

SL-12 DEB

ActivoLEO
NORAD 18765·DEBRIS·🇷🇺 Russia

Lanzado May 30, 1985 desde Baikonur Cosmodrome

Loading…

Próximos Pases (próximas 24 horas)

TLE

ActualizadoSource: Space-Track

Época: Sep 14, 2026, 17:16 UTC

1 18765U 85042H   26257.71979613  .00002044  00000-0  42432-3 0  9999
2 18765  66.5731 154.2693 0007523 294.2412  65.7915 14.62251677 28361

Sigue SL-12 DEB en tiempo real con AllMySat

Download on the App Store